If you wish to contribute or participate in the discussions about articles you are invited to join SKYbrary as a registered user

 Actions

Châteauroux-Déols "Marcel Dassault" Airport

From SKYbrary Wiki

LFLX
Airport
ICAO: LFLX – IATA: CHR
Summary
Name Châteauroux-Déols "Marcel Dassault" Airport
Region Europe
Territory France FR.gif
Location , Centre
Serving Chateauroux
Elevation 161.239 m
529 ft
529 ft161.239 m
Type medium airport
Coordinates 46° 51' 43.90" N, 1° 43' 50.40" E
Runways
Designator Length Width Surface ROPS
4/22 3500 m11,482.94 ft
45 m147.638 ft
CON no/no


METAR
Observation LFLX 102130Z AUTO 19006KT CAVOK 06/03 Q1020 NOSIG
Station Chateauroux
Date/Time 10 December 2019 21:30:00
Wind direction 190°
Wind speed 06 kts
Lowest cloud amount clouds and visibility OK
Temperature 6°C
Dew point 3°C
Humidity 81%
QNH 1020 hPa
Weather condition n/a